Date String (YYYY-MM-DD hh:mm:ss) UTC,Instrument flags,absolute air pressure of the measurement (hPa),sample flow rate (lpm),inlet stack bypass flow (lpm),air temperature of the measurement (°C),ambient temperature measured by the external sensor (°C),aerosol sample conditioner tube jacket temperature (°C),OPC LED temperature (°C),internal box temperature (°C),relative humidity of the measurement (%),span deviation,mass concentration of particles derived from Lorenz-Mie calculation of OPC scattering (μg/m³),mass concentration of particles derived from Lorenz-Mie calculation of OPC scattering (μg/m³),mass concentration of particles derived from Lorenz-Mie calculation of OPC scattering (μg/m³)
DateTimeUTC,F1_M11,P_M11,Q1_M11,Q2_M11,T1_M11,T2_M11,T3_M11,T4_M11,T5_M11,U1_M11,ZSPAN_M11,X2_M11,X0_M11,X1_M11
2024-02-20 20:00:00,SystemResetWarning,0827.7,5.00,000.00,025.5,025.1,000.0,033.6,027.4,10.9,0000.0,0001.03,0001.89,0000.74
2024-02-20 20:01:00,SystemResetWarning,0827.7,4.99,000.00,025.5,025.1,000.0,033.7,027.4,10.8,0000.0,0001.03,0001.87,0000.74
2024-02-20 20:02:00,SystemResetWarning,0827.8,4.99,000.00,025.5,025.2,000.0,033.7,027.5,11.1,0000.0,0001.02,0001.80,0000.74
2024-02-20 20:03:00,SystemResetWarning,0827.8,5.01,000.00,025.6,025.2,000.0,033.7,027.5,11.2,0000.0,0001.04,0001.76,0000.74
2024-02-20 20:04:00,SystemResetWarning,0827.8,5.01,000.00,025.6,025.2,000.0,033.7,027.5,11.3,0000.0,0001.04,0002.42,0000.74
2024-02-20 20:05:00,SystemResetWarning,0827.8,5.01,000.00,025.6,025.3,000.0,033.8,027.5,11.0,0000.0,0001.03,0002.59,0000.73
2024-02-20 20:06:00,SystemResetWarning,0827.8,5.00,000.00,025.7,025.3,000.0,033.8,027.6,11.1,0000.0,0001.02,0002.53,0000.73
2024-02-20 20:07:00,SystemResetWarning,0827.7,5.00,000.00,025.7,025.3,000.0,033.8,027.6,11.1,0000.0,0001.02,0002.51,0000.73
2024-02-20 20:08:00,SystemResetWarning,0827.7,5.00,000.00,025.7,025.4,000.0,033.8,027.6,11.0,0000.0,0000.99,0002.40,0000.72
2024-02-20 20:09:00,SystemResetWarning,0827.7,4.99,000.00,025.8,025.4,000.0,033.9,027.7,10.8,0000.0,0000.98,0002.38,0000.73
2024-02-20 20:10:00,SystemResetWarning,0827.7,5.01,000.00,025.8,025.4,000.0,033.9,027.7,10.6,0000.0,0000.93,0002.29,0000.73
2024-02-20 20:11:00,SystemResetWarning,0827.7,5.01,000.00,025.8,025.5,000.0,033.9,027.7,10.5,0000.0,0000.90,0002.28,0000.72
2024-02-20 20:12:00,SystemResetWarning,0827.7,4.99,000.00,025.9,025.5,000.0,034.0,027.7,10.4,0000.0,0000.91,0002.33,0000.71
2024-02-20 20:13:00,SystemResetWarning,0827.7,4.99,000.00,025.9,025.4,000.0,034.1,027.7,10.3,0000.0,0000.89,0002.31,0000.70
2024-02-20 20:14:00,SystemResetWarning,0827.7,4.99,000.00,025.8,023.8,000.0,034.1,026.9,10.7,0000.0,0000.86,0002.26,0000.69
2024-02-20 20:15:00,SystemResetWarning,0827.7,5.00,000.00,025.3,021.8,000.0,034.1,025.8,10.7,0000.0,0000.86,0002.00,0000.69
2024-02-20 20:16:00,SystemResetWarning,0827.7,5.02,000.00,025.0,021.7,000.0,034.0,025.6,11.0,0000.0,0000.88,0001.53,0000.69
2024-02-20 20:17:00,SystemResetWarning,0827.7,5.00,000.00,024.9,022.1,000.0,033.8,025.8,11.1,0000.0,0000.89,0001.55,0000.69
2024-02-20 20:18:00,SystemResetWarning,0827.6,5.00,000.00,024.8,022.5,000.0,033.7,026.1,11.3,0000.0,0000.89,0001.58,0000.68
2024-02-20 20:19:00,SystemResetWarning,0827.7,4.99,000.00,024.8,022.9,000.0,033.6,026.3,10.9,0000.0,0000.94,0001.67,0000.69
2024-02-20 20:20:00,SystemResetWarning,0827.7,5.00,000.00,024.9,023.2,000.0,033.5,026.4,11.3,0000.0,0000.91,0001.55,0000.69
2024-02-20 20:21:00,SystemResetWarning,0827.6,5.00,000.00,024.9,023.5,000.0,033.4,026.6,11.1,0000.0,0000.92,0001.63,0000.68
2024-02-20 20:22:00,SystemResetWarning,0827.6,5.01,000.00,024.9,023.8,000.0,033.4,026.7,11.2,0000.0,0000.92,0001.58,0000.68
2024-02-20 20:23:00,SystemResetWarning,0827.6,5.00,000.00,025.0,024.0,000.0,033.4,026.8,11.3,0000.0,0000.93,0001.53,0000.69
2024-02-20 20:24:00,SystemResetWarning,0827.6,5.00,000.00,025.0,024.2,000.0,033.4,026.8,11.0,0000.0,0000.94,0001.55,0000.71
2024-02-20 20:25:00,SystemResetWarning,0827.6,4.99,000.00,025.1,024.3,000.0,033.4,026.9,11.0,0000.0,0000.95,0001.53,0000.72
2024-02-20 20:26:00,SystemResetWarning,0827.6,4.99,000.00,025.1,024.5,000.0,033.4,026.9,11.3,0000.0,0000.95,0001.45,0000.72
2024-02-20 20:27:00,SystemResetWarning,0827.7,5.00,000.00,025.1,024.6,000.0,033.4,027.0,11.4,0000.0,0000.92,0001.36,0000.71
2024-02-20 20:28:00,SystemResetWarning,0827.7,5.01,000.00,025.2,024.7,000.0,033.4,027.1,11.1,0000.0,0000.90,0001.30,0000.72
2024-02-20 20:29:00,SystemResetWarning,0827.6,5.00,000.00,025.2,024.8,000.0,033.4,027.1,11.1,0000.0,0000.90,0001.28,0000.74
2024-02-20 20:30:00,SystemResetWarning,0827.6,4.99,000.00,025.3,024.8,000.0,033.4,027.2,11.2,0000.0,0000.86,0001.39,0000.73
2024-02-20 20:31:00,SystemResetWarning,0827.6,4.99,000.00,025.3,024.9,000.0,033.4,027.2,11.5,0000.0,0000.88,0001.89,0000.74
2024-02-20 20:32:00,SystemResetWarning,0827.5,5.00,000.00,025.3,025.0,000.0,033.5,027.3,11.2,0000.0,0000.88,0001.81,0000.75
2024-02-20 20:33:00,SystemResetWarning,0827.5,5.00,000.00,025.4,025.0,000.0,033.5,027.3,11.1,0000.0,0000.88,0001.81,0000.75
2024-02-20 20:34:00,SystemResetWarning,0827.5,5.01,000.00,025.4,025.1,000.0,033.5,027.3,11.2,0000.0,0000.86,0001.79,0000.75
2024-02-20 20:35:00,SystemResetWarning,0827.6,5.01,000.00,025.5,025.1,000.0,033.6,027.4,11.0,0000.0,0000.85,0001.77,0000.74
2024-02-20 20:36:00,SystemResetWarning,0827.6,5.00,000.00,025.5,025.2,000.0,033.6,027.4,10.7,0000.0,0000.89,0001.87,0000.74
2024-02-20 20:37:00,SystemResetWarning,0827.7,4.98,000.00,025.6,025.2,000.0,033.6,027.5,10.8,0000.0,0000.91,0001.90,0000.75
2024-02-20 20:38:00,SystemResetWarning,0827.4,5.00,000.00,025.6,025.3,000.0,033.7,027.5,11.1,0000.0,0000.91,0001.89,0000.76
2024-02-20 20:39:00,SystemResetWarning,0827.6,5.00,000.00,025.6,025.3,000.0,033.7,027.6,11.0,0000.0,0000.93,0001.95,0000.76
2024-02-20 20:40:00,SystemResetWarning,0827.5,5.00,000.00,025.7,025.4,000.0,033.7,027.6,10.8,0000.0,0000.94,0001.99,0000.75
2024-02-20 20:41:00,SystemResetWarning,0827.5,5.00,000.00,025.6,024.3,000.0,033.8,027.0,10.5,0000.0,0000.98,0001.84,0000.76
2024-02-20 20:42:00,SystemResetWarning,0827.4,5.00,000.00,025.2,022.0,000.0,033.8,025.8,10.6,0000.0,0000.98,0001.40,0000.76
2024-02-20 20:43:00,SystemResetWarning,0827.4,5.01,000.00,024.8,021.6,000.0,033.8,025.4,11.1,0000.0,0001.00,0001.46,0000.76
2024-02-20 20:44:00,SystemResetWarning,0827.8,5.01,000.00,024.7,022.0,000.0,033.7,025.6,11.3,0000.0,0001.01,0001.47,0000.77
2024-02-20 20:45:00,SystemResetWarning,0827.6,4.99,000.00,024.7,022.4,000.0,033.5,025.8,11.3,0000.0,0001.03,0001.51,0000.78
2024-02-20 20:46:00,SystemResetWarning,0827.6,4.99,000.00,024.7,022.7,000.0,033.4,026.1,11.2,0000.0,0001.06,0001.59,0000.79
2024-02-20 20:47:00,SystemResetWarning,0827.6,5.00,000.00,024.7,023.1,000.0,033.3,026.3,11.2,0000.0,0001.03,0001.51,0000.80
2024-02-20 20:48:00,SystemResetWarning,0827.6,5.01,000.00,024.7,023.4,000.0,033.3,026.4,11.5,0000.0,0001.06,0001.57,0000.80
2024-02-20 20:49:00,SystemResetWarning,0827.4,4.99,000.00,024.8,023.6,000.0,033.2,026.5,11.2,0000.0,0001.06,0001.56,0000.81
2024-02-20 20:50:00,SystemResetWarning,0827.4,4.99,000.00,024.8,023.8,000.0,033.2,026.6,10.8,0000.0,0001.04,0001.49,0000.81
2024-02-20 20:51:00,SystemResetWarning,0827.5,4.99,000.00,024.9,024.0,000.0,033.2,026.7,11.5,0000.0,0001.02,0001.43,0000.81
2024-02-20 20:52:00,SystemResetWarning,0827.5,5.00,000.00,024.9,024.2,000.0,033.2,026.8,11.4,0000.0,0001.00,0001.40,0000.81
2024-02-20 20:53:00,SystemResetWarning,0827.6,5.00,000.00,025.0,024.4,000.0,033.2,026.8,11.4,0000.0,0000.99,0001.34,0000.82
2024-02-20 20:54:00,SystemResetWarning,0827.6,5.01,000.00,025.0,024.5,000.0,033.2,026.9,11.4,0000.0,0001.00,0001.34,0000.82
2024-02-20 20:55:00,SystemResetWarning,0827.4,5.00,000.00,025.1,024.6,000.0,033.2,027.0,11.2,0000.0,0001.01,0001.44,0000.82
2024-02-20 20:56:00,SystemResetWarning,0827.4,5.00,000.00,025.1,024.7,000.0,033.3,027.1,10.8,0000.0,0001.00,0002.44,0000.81
2024-02-20 20:57:00,SystemResetWarning,0827.3,4.99,000.00,025.2,024.8,000.0,033.3,027.1,10.9,0000.0,0000.98,0002.38,0000.81
2024-02-20 20:58:00,SystemResetWarning,0827.4,4.99,000.00,025.2,024.9,000.0,033.3,027.2,10.6,0000.0,0000.99,0002.38,0000.81
2024-02-20 20:59:00,SystemResetWarning,0827.3,5.01,000.00,025.3,024.9,000.0,033.4,027.2,10.8,0000.0,0000.95,0002.30,0000.81
